Location: Unspecified
(0.0000°N, 0.0000°E)
Time: 15:33:49
(UTC+02:00)

Orbus 21S - Visible Passes

Search period start: 21 October 2014 00:00
Search period end: 30 October 2014 23:00
Orbit: 320 x 33457 km, 24.1° (Epoch: 18 October)

Date Brightness Start Highest point End Pass type
(mag) Time Alt. Az. Time Alt. Az. Time Alt. Az.
21 Oct 5.6 00:00:00 42° W 07:52:35 69° SSE 07:58:36 10° ENE visible
21 Oct 7.8 18:10:10 10° NW 18:31:37 66° NE 03:18:49 10° ESE visible
23 Oct 9.9 00:22:12 10° W 01:38:07 24° W 04:28:56 10° WSW visible
23 Oct 8.1 19:16:56 10° WNW 19:55:12 84° NE 04:28:18 10° ESE visible
24 Oct 6.2 14:44:44 10° N 21:38:40 25° ESE 15:02:48 10° ENE visible
25 Oct 7.8 20:24:54 10° WNW 21:37:13 78° WSW 04:36:07 10° E visible
26 Oct 6.5 14:48:59 10° NNW 21:38:35 42° SE 23:43:03 10° ESE visible
27 Oct 6.4 20:35:09 10° WNW 05:33:46 64° SSE 05:42:46 10° E visible
28 Oct 7.2 15:54:11 10° NW 22:27:54 55° SE 00:58:44 10° ESE visible
29 Oct 5.1 21:50:19 10° W 06:43:06 85° SSE 06:48:34 10° ENE visible
30 Oct 7.8 16:59:59 10° NW 17:22:30 74° NE 23:00:00 63° S visible
